VCC B (44429 NORAD) Tracking and Keplerian Element Data

This shows tracking and keplerian element data for the satellite.

Feedback or suggestion? Click here.




ElementValue
Catalog44429
NameVCC B
Epoch Orbit701
Epoch Day229.15643634
Epoch Year2019
RAAN58.4656
Inclination51.642
Eccentricity0.0002652
Argument of Perigee268.5921
Mean Anonmoly91.4765
Mean Motion15.52192941
Decay Rate4.877E-05
L11 44429U 98067QP 19229.15643634 .00004877 00000-0 86550-4 0 9992
L22 44429 51.6420 58.4656 0002652 268.5921 91.4765 15.52192941 7014

Live tracking and technical data element details for VCC B (NORAD 44429). VCC B can be tracked NOW for your location showing map with azimuth and elevation plus other details from your city location.

Track the satellite on the map from your city or location and see movement details for azimuth, elevation, latitude, longitude, range, height, and movement on the map or in text.







IsCatalogInMostPopularTable: catalog: 44429, numindb: 10
Update: records affected: 1



GetName: 44429 VCC B

Hit Count: updated at: Wed, 21 Aug 2019 11:07:59 GMT